Weather in Lugovskoy

Russia / Khanty-Mansi Autonomous Okrug — Yugra     61°03′39″N   68°30′18″E
temp.,
°C
wind,
m/s
gust,
m/s
humid.,
%
clouds,
%
prec.,
mm/h
press.,
hPa
HPBL,
m
7 march, sun
sun723:00−12wnw349696 0.4 100190
02:00−14wnw359699 0.0 100291
05:00−15wnw469699 0.0 1005126
08:00−19w349783 0.0 100681
11:00−15w359049 0.0 1008279
14:00−13wsw35808 0.0 1009507
17:00−15ssw239011 0.0 100929
20:00−19s22990 0.0 100920
8 march, mon
mon823:00−21se111006 0.0 100820
02:00−21ne2210068 0.0 100620
05:00−19nne339783 0.0 100555
08:00−19n349699 0.0 1003108
11:00−17nw459297 0.1 1004243
14:00−16nw469151 0.0 1004265
17:00−18wnw339425 0.0 100574
20:00−22w12980 0.0 100620
9 march, tue
tue923:00−23sw1110040 0.0 100620
02:00−21se129895 0.0 100720
05:00−20ese239797 0.0 100647
08:00−18e469795 0.1 1005172
11:00−15e579597 0.3 1004280
14:00−11se4690100 0.7 1003555
17:00−10ene2395100 0.8 1001139
20:00−11ne4695100 0.5 1000149
10 march, wed
wed1023:00−15n4695100 0.6 1000139
02:00−22nw579776 0.0 1002123
05:00−26nw449838 0.0 100573
08:00−27nnw33970 0.0 100642
11:00−22nw239313 0.0 1007230
14:00−20nw229292 0.0 1006243
17:00−22wnw129792 0.0 100533
20:00−24nnw229994 0.0 100529
11 march, thu
thu1123:00−24nnw239993 0.1 100432
02:00−26nnw239996 0.1 100222
05:00−29nw2210098 0.1 100219
08:00−29wnw239891 0.0 100226
11:00−24sw239394 0.0 1002247
14:00−20sw2493100 0.1 1002428
17:00−19wsw3593100 0.3 1002569
20:00−24w339898 0.1 100431